Year,Month,Day,Hour,Minute,Value (Times are PST for temperature in C)
2021,06,02,00,00,16.90
2021,06,02,00,01,16.90
2021,06,02,00,02,16.90
2021,06,02,00,03,16.90
2021,06,02,00,04,16.80
2021,06,02,00,05,16.80
2021,06,02,00,06,16.80
2021,06,02,00,07,16.80
2021,06,02,00,08,16.80
2021,06,02,00,09,16.80
2021,06,02,00,10,16.80
2021,06,02,00,11,16.70
2021,06,02,00,12,16.70
2021,06,02,00,13,16.70
2021,06,02,00,14,16.70
2021,06,02,00,15,16.70
2021,06,02,00,16,16.70
2021,06,02,00,17,16.70
2021,06,02,00,18,16.70
2021,06,02,00,19,16.60
2021,06,02,00,20,16.60
2021,06,02,00,21,16.60
2021,06,02,00,22,16.60
2021,06,02,00,23,16.60
2021,06,02,00,24,16.60
2021,06,02,00,25,16.60
2021,06,02,00,26,16.60
2021,06,02,00,27,16.60
2021,06,02,00,28,16.60
2021,06,02,00,29,16.50
2021,06,02,00,30,16.50
2021,06,02,00,31,16.50
2021,06,02,00,32,16.50
2021,06,02,00,33,16.50
2021,06,02,00,34,16.50
2021,06,02,00,35,16.50
2021,06,02,00,36,16.50
2021,06,02,00,37,16.40
2021,06,02,00,38,16.40
2021,06,02,00,39,16.40
2021,06,02,00,40,16.40
2021,06,02,00,41,16.40
2021,06,02,00,42,16.40
2021,06,02,00,43,16.40
2021,06,02,00,44,16.40
2021,06,02,00,45,16.40
2021,06,02,00,46,16.40
2021,06,02,00,47,16.40
2021,06,02,00,48,16.30
2021,06,02,00,49,16.30
2021,06,02,00,50,16.30
2021,06,02,00,51,16.30
2021,06,02,00,52,16.30
2021,06,02,00,53,16.30
2021,06,02,00,54,16.30
2021,06,02,00,55,16.30
2021,06,02,00,56,16.30
2021,06,02,00,57,16.20
2021,06,02,00,58,16.20
2021,06,02,00,59,16.20
2021,06,02,01,00,16.20
2021,06,02,01,01,16.20
2021,06,02,01,02,16.20
2021,06,02,01,03,16.20
2021,06,02,01,04,16.20
2021,06,02,01,05,16.10
2021,06,02,01,06,16.10
2021,06,02,01,07,16.10
2021,06,02,01,08,16.10
2021,06,02,01,09,16.10
2021,06,02,01,10,16.10
2021,06,02,01,11,16.10
2021,06,02,01,12,16.10
2021,06,02,01,13,16.10
2021,06,02,01,14,16.10
2021,06,02,01,15,16.10
2021,06,02,01,16,16.10
2021,06,02,01,17,16.10
2021,06,02,01,18,16.10
2021,06,02,01,19,16.10
2021,06,02,01,20,16.10
2021,06,02,01,21,16.10
2021,06,02,01,22,16.10
2021,06,02,01,23,16.10
2021,06,02,01,24,16.10
2021,06,02,01,25,16.10
2021,06,02,01,26,16.10
2021,06,02,01,27,16.10
2021,06,02,01,28,16.00
2021,06,02,01,29,16.00
2021,06,02,01,30,16.10
2021,06,02,01,31,16.10
2021,06,02,01,32,16.00
2021,06,02,01,33,16.00
2021,06,02,01,34,16.00
2021,06,02,01,35,16.00
2021,06,02,01,36,16.10
2021,06,02,01,37,16.10
2021,06,02,01,38,16.10
2021,06,02,01,39,16.10
2021,06,02,01,40,16.10
2021,06,02,01,41,16.10
2021,06,02,01,42,16.10
2021,06,02,01,43,16.10
2021,06,02,01,44,16.10
2021,06,02,01,45,16.10
2021,06,02,01,46,16.10
2021,06,02,01,47,16.10
2021,06,02,01,48,16.10
2021,06,02,01,49,16.20
2021,06,02,01,50,16.10
2021,06,02,01,51,16.10
2021,06,02,01,52,16.10
2021,06,02,01,53,16.10
2021,06,02,01,54,16.10
2021,06,02,01,55,16.10
2021,06,02,01,56,16.10
2021,06,02,01,57,16.10
2021,06,02,01,58,16.10
2021,06,02,01,59,16.10
2021,06,02,02,00,16.10
2021,06,02,02,01,16.10
2021,06,02,02,02,16.10
2021,06,02,02,03,16.10
2021,06,02,02,04,16.10
2021,06,02,02,05,16.10
2021,06,02,02,06,16.10
2021,06,02,02,07,16.10
2021,06,02,02,08,16.10
2021,06,02,02,09,16.10
2021,06,02,02,10,16.10
2021,06,02,02,11,16.10
2021,06,02,02,12,16.10
2021,06,02,02,13,16.10
2021,06,02,02,14,16.10
2021,06,02,02,15,16.10
2021,06,02,02,16,16.10
2021,06,02,02,17,16.10
2021,06,02,02,18,16.10
2021,06,02,02,19,16.10
2021,06,02,02,20,16.10
2021,06,02,02,21,16.10
2021,06,02,02,22,16.00
2021,06,02,02,23,16.00
2021,06,02,02,24,16.00
2021,06,02,02,25,16.00
2021,06,02,02,26,16.00
2021,06,02,02,27,16.00
2021,06,02,02,28,16.00
2021,06,02,02,29,16.00
2021,06,02,02,30,16.00
2021,06,02,02,31,16.00
2021,06,02,02,32,16.00
2021,06,02,02,33,16.00
2021,06,02,02,34,16.00
2021,06,02,02,35,16.00
2021,06,02,02,36,16.00
2021,06,02,02,37,16.00
2021,06,02,02,38,16.00
2021,06,02,02,39,16.00
2021,06,02,02,40,16.00
2021,06,02,02,41,16.00
2021,06,02,02,42,16.00
2021,06,02,02,43,16.00
2021,06,02,02,44,16.00
2021,06,02,02,45,16.00
2021,06,02,02,46,16.00
2021,06,02,02,47,16.00
2021,06,02,02,48,15.90
2021,06,02,02,49,16.00
2021,06,02,02,50,16.00
2021,06,02,02,51,16.00
2021,06,02,02,52,16.00
2021,06,02,02,53,16.00
2021,06,02,02,54,16.00
2021,06,02,02,55,15.90
2021,06,02,02,56,15.90
2021,06,02,02,57,15.90
2021,06,02,02,58,15.90
2021,06,02,02,59,15.90
2021,06,02,03,00,15.90
2021,06,02,03,01,15.90
2021,06,02,03,02,15.90
2021,06,02,03,03,15.90
2021,06,02,03,04,15.80
2021,06,02,03,05,15.80
2021,06,02,03,06,15.80
2021,06,02,03,07,15.80
2021,06,02,03,08,15.80
2021,06,02,03,09,15.80
2021,06,02,03,10,15.80
2021,06,02,03,11,15.80
2021,06,02,03,12,15.80
2021,06,02,03,13,15.80
2021,06,02,03,14,15.80
2021,06,02,03,15,15.80
2021,06,02,03,16,15.80
2021,06,02,03,17,15.80
2021,06,02,03,18,15.80
2021,06,02,03,19,15.80
2021,06,02,03,20,15.80
2021,06,02,03,21,15.80
2021,06,02,03,22,15.80
2021,06,02,03,23,15.80
2021,06,02,03,24,15.80
2021,06,02,03,25,15.80
2021,06,02,03,26,15.80
2021,06,02,03,27,15.80
2021,06,02,03,28,15.70
2021,06,02,03,29,15.70
2021,06,02,03,30,15.70
2021,06,02,03,31,15.70
2021,06,02,03,32,15.70
2021,06,02,03,33,15.70
2021,06,02,03,34,15.70
2021,06,02,03,35,15.70
2021,06,02,03,36,15.70
2021,06,02,03,37,15.60
2021,06,02,03,38,15.60
2021,06,02,03,39,15.60
2021,06,02,03,40,15.60
2021,06,02,03,41,15.60
2021,06,02,03,42,15.60
2021,06,02,03,43,15.60
2021,06,02,03,44,15.60
2021,06,02,03,45,15.60
2021,06,02,03,46,15.50
2021,06,02,03,47,15.50
2021,06,02,03,48,15.50
2021,06,02,03,49,15.50
2021,06,02,03,50,15.50
2021,06,02,03,51,15.50
2021,06,02,03,52,15.40
2021,06,02,03,53,15.40
2021,06,02,03,54,15.40
2021,06,02,03,55,15.40
2021,06,02,03,56,15.40
2021,06,02,03,57,15.40
2021,06,02,03,58,15.40
2021,06,02,03,59,15.40
2021,06,02,04,00,15.40
2021,06,02,04,01,15.40
2021,06,02,04,02,15.40
2021,06,02,04,03,15.40
2021,06,02,04,04,15.40
2021,06,02,04,05,15.40
2021,06,02,04,06,15.40
2021,06,02,04,07,15.40
2021,06,02,04,08,15.40
2021,06,02,04,09,15.30
2021,06,02,04,10,15.30
2021,06,02,04,11,15.30
2021,06,02,04,12,15.40
2021,06,02,04,13,15.40
2021,06,02,04,14,15.40
2021,06,02,04,15,15.40
2021,06,02,04,16,15.40
2021,06,02,04,17,15.40
2021,06,02,04,18,15.40
2021,06,02,04,19,15.30
2021,06,02,04,20,15.40
2021,06,02,04,21,15.30
2021,06,02,04,22,15.30
2021,06,02,04,23,15.30
2021,06,02,04,24,15.30
2021,06,02,04,25,15.30
2021,06,02,04,26,15.30
2021,06,02,04,27,15.30
2021,06,02,04,28,15.30
2021,06,02,04,29,15.30
2021,06,02,04,30,15.20
2021,06,02,04,31,15.20
2021,06,02,04,32,15.20
2021,06,02,04,33,15.20
2021,06,02,04,34,15.20
2021,06,02,04,35,15.20
2021,06,02,04,36,15.20
2021,06,02,04,37,15.20
2021,06,02,04,38,15.20
2021,06,02,04,39,15.20
2021,06,02,04,40,15.20
2021,06,02,04,41,15.20
2021,06,02,04,42,15.20
2021,06,02,04,43,15.20
2021,06,02,04,44,15.10
2021,06,02,04,45,15.10
2021,06,02,04,46,15.10
2021,06,02,04,47,15.10
2021,06,02,04,48,15.10
2021,06,02,04,49,15.10
2021,06,02,04,50,15.10
2021,06,02,04,51,15.10
2021,06,02,04,52,15.00
2021,06,02,04,53,15.00
2021,06,02,04,54,15.00
2021,06,02,04,55,15.00
2021,06,02,04,56,15.00
2021,06,02,04,57,15.00
2021,06,02,04,58,15.00
2021,06,02,04,59,15.00
2021,06,02,05,00,15.00
2021,06,02,05,01,15.00
2021,06,02,05,02,15.00
2021,06,02,05,03,15.10
2021,06,02,05,04,15.10
2021,06,02,05,05,15.10
2021,06,02,05,06,15.10
2021,06,02,05,07,15.10
2021,06,02,05,08,15.10
2021,06,02,05,09,15.10
2021,06,02,05,10,15.10
2021,06,02,05,11,15.10
2021,06,02,05,12,15.10
2021,06,02,05,13,15.10
2021,06,02,05,14,15.10
2021,06,02,05,15,15.20
2021,06,02,05,16,15.20
2021,06,02,05,17,15.20
2021,06,02,05,18,15.20
2021,06,02,05,19,15.20
2021,06,02,05,20,15.10
2021,06,02,05,21,15.10
2021,06,02,05,22,15.10
2021,06,02,05,23,15.00
2021,06,02,05,24,15.00
2021,06,02,05,25,14.90
2021,06,02,05,26,14.90
2021,06,02,05,27,14.90
2021,06,02,05,28,14.90
2021,06,02,05,29,14.90
2021,06,02,05,30,14.80
2021,06,02,05,31,14.80
2021,06,02,05,32,14.80
2021,06,02,05,33,14.80
2021,06,02,05,34,14.80
2021,06,02,05,35,14.80
2021,06,02,05,36,14.80
2021,06,02,05,37,14.70
2021,06,02,05,38,14.70
2021,06,02,05,39,14.70
2021,06,02,05,40,14.70
2021,06,02,05,41,14.70
2021,06,02,05,42,14.70
2021,06,02,05,43,14.70
2021,06,02,05,44,14.70
2021,06,02,05,45,14.70
2021,06,02,05,46,14.70
2021,06,02,05,47,14.70
2021,06,02,05,48,14.70
2021,06,02,05,49,14.60
2021,06,02,05,50,14.60
2021,06,02,05,51,14.60
2021,06,02,05,52,14.60
2021,06,02,05,53,14.60
2021,06,02,05,54,14.60
2021,06,02,05,55,14.60
2021,06,02,05,56,14.60
2021,06,02,05,57,14.60
2021,06,02,05,58,14.60
2021,06,02,05,59,14.60
2021,06,02,06,00,14.60
2021,06,02,06,01,14.50
2021,06,02,06,02,14.50
2021,06,02,06,03,14.50
2021,06,02,06,04,14.50
2021,06,02,06,05,14.50
2021,06,02,06,06,14.50
2021,06,02,06,07,14.40
2021,06,02,06,08,14.40
2021,06,02,06,09,14.40
2021,06,02,06,10,14.40
2021,06,02,06,11,14.40
2021,06,02,06,12,14.40
2021,06,02,06,13,14.40
2021,06,02,06,14,14.40
2021,06,02,06,15,14.40
2021,06,02,06,16,14.40
2021,06,02,06,17,14.40
2021,06,02,06,18,14.40
2021,06,02,06,19,14.40
2021,06,02,06,20,14.40
2021,06,02,06,21,14.40
2021,06,02,06,22,14.40
2021,06,02,06,23,14.40
2021,06,02,06,24,14.50
2021,06,02,06,25,14.50
2021,06,02,06,26,14.60
2021,06,02,06,27,14.60
2021,06,02,06,28,14.60
2021,06,02,06,29,14.70
2021,06,02,06,30,14.70
2021,06,02,06,31,14.70
2021,06,02,06,32,14.80
2021,06,02,06,33,14.80
2021,06,02,06,34,14.80
2021,06,02,06,35,14.80
2021,06,02,06,36,14.90
2021,06,02,06,37,14.90
2021,06,02,06,38,14.90
2021,06,02,06,39,14.90
2021,06,02,06,40,15.00
2021,06,02,06,41,15.00
2021,06,02,06,42,15.10
2021,06,02,06,43,15.10
2021,06,02,06,44,15.20
2021,06,02,06,45,15.20
2021,06,02,06,46,15.20
2021,06,02,06,47,15.30
2021,06,02,06,48,15.30
2021,06,02,06,49,15.30
2021,06,02,06,50,15.30
2021,06,02,06,51,15.40
2021,06,02,06,52,15.40
2021,06,02,06,53,15.40
2021,06,02,06,54,15.40
2021,06,02,06,55,15.40
2021,06,02,06,56,15.40
2021,06,02,06,57,15.40
2021,06,02,06,58,15.40
2021,06,02,06,59,15.50
2021,06,02,07,00,15.50
2021,06,02,07,01,15.50
2021,06,02,07,02,15.50
2021,06,02,07,03,15.50
2021,06,02,07,04,15.50
2021,06,02,07,05,15.50
2021,06,02,07,06,15.60
2021,06,02,07,07,15.60
2021,06,02,07,08,15.60
2021,06,02,07,09,15.60
2021,06,02,07,10,15.70
2021,06,02,07,11,15.70
2021,06,02,07,12,15.70
2021,06,02,07,13,15.70
2021,06,02,07,14,15.70
2021,06,02,07,15,15.70
2021,06,02,07,16,15.70
2021,06,02,07,17,15.80
2021,06,02,07,18,15.80
2021,06,02,07,19,15.80
2021,06,02,07,20,15.80
2021,06,02,07,21,15.80
2021,06,02,07,22,15.80
2021,06,02,07,23,15.80
2021,06,02,07,24,15.80
2021,06,02,07,25,15.90
2021,06,02,07,26,15.90
2021,06,02,07,27,15.90
2021,06,02,07,28,15.90
2021,06,02,07,29,15.90
2021,06,02,07,30,15.90
2021,06,02,07,31,15.90
2021,06,02,07,32,15.90
2021,06,02,07,33,16.00
2021,06,02,07,34,16.00
2021,06,02,07,35,16.00
2021,06,02,07,36,16.10
2021,06,02,07,37,16.10
2021,06,02,07,38,16.10
2021,06,02,07,39,16.20
2021,06,02,07,40,16.20
2021,06,02,07,41,16.20
2021,06,02,07,42,16.20
2021,06,02,07,43,16.30
2021,06,02,07,44,16.30
2021,06,02,07,45,16.30
2021,06,02,07,46,16.40
2021,06,02,07,47,16.40
2021,06,02,07,48,16.40
2021,06,02,07,49,16.50
2021,06,02,07,50,16.60
2021,06,02,07,51,16.60
2021,06,02,07,52,16.70
2021,06,02,07,53,16.70
2021,06,02,07,54,16.70
2021,06,02,07,55,16.80
2021,06,02,07,56,16.80
2021,06,02,07,57,16.90
2021,06,02,07,58,16.90
2021,06,02,07,59,17.00
2021,06,02,08,00,17.10
2021,06,02,08,01,17.10
2021,06,02,08,02,17.10
2021,06,02,08,03,17.20
2021,06,02,08,04,17.20
2021,06,02,08,05,17.20
2021,06,02,08,06,17.30
2021,06,02,08,07,17.30
2021,06,02,08,08,17.30
2021,06,02,08,09,17.40
2021,06,02,08,10,17.40
2021,06,02,08,11,17.40
2021,06,02,08,12,17.50
2021,06,02,08,13,17.50
2021,06,02,08,14,17.60
2021,06,02,08,15,17.70
2021,06,02,08,16,17.70
2021,06,02,08,17,17.80
2021,06,02,08,18,17.80
2021,06,02,08,19,17.80
2021,06,02,08,20,17.80
2021,06,02,08,21,17.80
2021,06,02,08,22,17.80
2021,06,02,08,23,17.90
2021,06,02,08,24,17.90
2021,06,02,08,25,17.90
2021,06,02,08,26,17.90
2021,06,02,08,27,17.90
2021,06,02,08,28,18.00
2021,06,02,08,29,18.00
2021,06,02,08,30,18.10
2021,06,02,08,31,18.10
2021,06,02,08,32,18.20
2021,06,02,08,33,18.20
2021,06,02,08,34,18.30
2021,06,02,08,35,18.30
2021,06,02,08,36,18.30
2021,06,02,08,37,18.30
2021,06,02,08,38,18.30
2021,06,02,08,39,18.40
2021,06,02,08,40,18.40
2021,06,02,08,41,18.30
2021,06,02,08,42,18.30
2021,06,02,08,43,18.40
2021,06,02,08,44,18.30
2021,06,02,08,45,18.40
2021,06,02,08,46,18.40
2021,06,02,08,47,18.40
2021,06,02,08,48,18.40
2021,06,02,08,49,18.40
2021,06,02,08,50,18.40
2021,06,02,08,51,18.40
2021,06,02,08,52,18.50
2021,06,02,08,53,18.50
2021,06,02,08,54,18.60
2021,06,02,08,55,18.60
2021,06,02,08,56,18.60
2021,06,02,08,57,18.60
2021,06,02,08,58,18.60
2021,06,02,08,59,18.60
2021,06,02,09,00,18.60
2021,06,02,09,01,18.60
2021,06,02,09,02,18.60
2021,06,02,09,03,18.70
2021,06,02,09,04,18.70
2021,06,02,09,05,18.70
2021,06,02,09,06,18.70
2021,06,02,09,07,18.70
2021,06,02,09,08,18.70
2021,06,02,09,09,18.70
2021,06,02,09,10,18.70
2021,06,02,09,11,18.70
2021,06,02,09,12,18.70
2021,06,02,09,13,18.70
2021,06,02,09,14,18.70
2021,06,02,09,15,18.70
2021,06,02,09,16,18.70
2021,06,02,09,17,18.70
2021,06,02,09,18,18.70
2021,06,02,09,19,18.70
2021,06,02,09,20,18.80
2021,06,02,09,21,18.80
2021,06,02,09,22,18.80
2021,06,02,09,23,18.80
2021,06,02,09,24,18.80
2021,06,02,09,25,18.80
2021,06,02,09,26,18.90
2021,06,02,09,27,18.90
2021,06,02,09,28,18.90
2021,06,02,09,29,19.00
2021,06,02,09,30,19.00
2021,06,02,09,31,19.10
2021,06,02,09,32,19.10
2021,06,02,09,33,19.10
2021,06,02,09,34,19.10
2021,06,02,09,35,19.10
2021,06,02,09,36,19.10
2021,06,02,09,37,19.20
2021,06,02,09,38,19.20
2021,06,02,09,39,19.20
2021,06,02,09,40,19.30
2021,06,02,09,41,19.30
2021,06,02,09,42,19.30
2021,06,02,09,43,19.30
2021,06,02,09,44,19.40
2021,06,02,09,45,19.50
2021,06,02,09,46,19.50
2021,06,02,09,47,19.60
2021,06,02,09,48,19.60
2021,06,02,09,49,19.70
2021,06,02,09,50,19.70
2021,06,02,09,51,19.80
2021,06,02,09,52,19.80
2021,06,02,09,53,19.90
2021,06,02,09,54,19.90
2021,06,02,09,55,20.00
2021,06,02,09,56,20.00
2021,06,02,09,57,20.00
2021,06,02,09,58,20.10
2021,06,02,09,59,20.20
2021,06,02,10,00,20.20
2021,06,02,10,01,20.30
2021,06,02,10,02,20.30
2021,06,02,10,03,20.40
2021,06,02,10,04,20.50
2021,06,02,10,05,20.50
2021,06,02,10,06,20.60
2021,06,02,10,07,20.60
2021,06,02,10,08,20.70
2021,06,02,10,09,20.70
2021,06,02,10,10,20.60
2021,06,02,10,11,20.60
2021,06,02,10,12,20.60
2021,06,02,10,13,20.50
2021,06,02,10,14,20.50
2021,06,02,10,15,20.40
2021,06,02,10,16,20.40
2021,06,02,10,17,20.30
2021,06,02,10,18,20.30
2021,06,02,10,19,20.30
2021,06,02,10,20,20.30
2021,06,02,10,21,20.30
2021,06,02,10,22,20.30
2021,06,02,10,23,20.30
2021,06,02,10,24,20.30
2021,06,02,10,25,20.30
2021,06,02,10,26,20.30
2021,06,02,10,27,20.30
2021,06,02,10,28,20.30
2021,06,02,10,29,20.40
2021,06,02,10,30,20.40
2021,06,02,10,31,20.40
2021,06,02,10,32,20.50
2021,06,02,10,33,20.60
2021,06,02,10,34,20.60
2021,06,02,10,35,20.60
2021,06,02,10,36,20.50
2021,06,02,10,37,20.50
2021,06,02,10,38,20.50
2021,06,02,10,39,20.50
2021,06,02,10,40,20.40
2021,06,02,10,41,20.30
2021,06,02,10,42,20.20
2021,06,02,10,43,20.20
2021,06,02,10,44,20.10
2021,06,02,10,45,20.00
2021,06,02,10,46,20.00
2021,06,02,10,47,20.00
2021,06,02,10,48,20.00
2021,06,02,10,49,20.10
2021,06,02,10,50,20.10
2021,06,02,10,51,20.20
2021,06,02,10,52,20.20
2021,06,02,10,53,20.30
2021,06,02,10,54,20.40
2021,06,02,10,55,20.50
2021,06,02,10,56,20.60
2021,06,02,10,57,20.70
2021,06,02,10,58,20.80
2021,06,02,10,59,20.90
2021,06,02,11,00,21.10
2021,06,02,11,01,21.20
2021,06,02,11,02,21.30
2021,06,02,11,03,21.40
2021,06,02,11,04,21.40
2021,06,02,11,05,21.40
2021,06,02,11,06,21.40
2021,06,02,11,07,21.50
2021,06,02,11,08,21.50
2021,06,02,11,09,21.40
2021,06,02,11,10,21.40
2021,06,02,11,11,21.40
2021,06,02,11,12,21.50
2021,06,02,11,13,21.60
2021,06,02,11,14,21.60
2021,06,02,11,15,21.60
2021,06,02,11,16,21.60
2021,06,02,11,17,21.70
2021,06,02,11,18,21.70
2021,06,02,11,19,21.70
2021,06,02,11,20,21.70
2021,06,02,11,21,21.80
2021,06,02,11,22,21.80
2021,06,02,11,23,21.80
2021,06,02,11,24,21.90
2021,06,02,11,25,22.00
2021,06,02,11,26,22.00
2021,06,02,11,27,22.10
2021,06,02,11,28,22.20
2021,06,02,11,29,22.20
2021,06,02,11,30,22.30
2021,06,02,11,31,22.30
2021,06,02,11,32,22.40
2021,06,02,11,33,22.40
2021,06,02,11,34,22.40
2021,06,02,11,35,22.40
2021,06,02,11,36,22.50
2021,06,02,11,37,22.50
2021,06,02,11,38,22.60
2021,06,02,11,39,22.60
2021,06,02,11,40,22.60
2021,06,02,11,41,22.60
2021,06,02,11,42,22.70
2021,06,02,11,43,22.60
2021,06,02,11,44,22.60
2021,06,02,11,45,22.60
2021,06,02,11,46,22.60
2021,06,02,11,47,22.70
2021,06,02,11,48,22.70
2021,06,02,11,49,22.80
2021,06,02,11,50,22.80
2021,06,02,11,51,22.80
2021,06,02,11,52,22.90
2021,06,02,11,53,22.90
2021,06,02,11,54,23.00
2021,06,02,11,55,23.10
2021,06,02,11,56,23.20
2021,06,02,11,57,23.30
2021,06,02,11,58,23.40
2021,06,02,11,59,23.40
2021,06,02,12,00,23.50
2021,06,02,12,01,23.60
2021,06,02,12,02,23.60
2021,06,02,12,03,23.60
2021,06,02,12,04,23.60
2021,06,02,12,05,23.70
2021,06,02,12,06,23.70
2021,06,02,12,07,23.70
2021,06,02,12,08,23.80
2021,06,02,12,09,23.80
2021,06,02,12,10,23.80
2021,06,02,12,11,23.90
2021,06,02,12,12,23.90
2021,06,02,12,13,24.00
2021,06,02,12,14,24.00
2021,06,02,12,15,24.10
2021,06,02,12,16,24.10
2021,06,02,12,17,24.10
2021,06,02,12,18,24.10
2021,06,02,12,19,24.10
2021,06,02,12,20,24.10
2021,06,02,12,21,24.10
2021,06,02,12,22,24.20
2021,06,02,12,23,24.30
2021,06,02,12,24,24.30
2021,06,02,12,25,24.40
2021,06,02,12,26,24.50
2021,06,02,12,27,24.60
2021,06,02,12,28,24.70
2021,06,02,12,29,24.70
2021,06,02,12,30,24.70
2021,06,02,12,31,24.70
2021,06,02,12,32,24.70
2021,06,02,12,33,24.70
2021,06,02,12,34,24.70
2021,06,02,12,35,24.70
2021,06,02,12,36,24.80
2021,06,02,12,37,24.80
2021,06,02,12,38,24.80
2021,06,02,12,39,24.80
2021,06,02,12,40,24.90
2021,06,02,12,41,24.90
2021,06,02,12,42,24.90
2021,06,02,12,43,24.90
2021,06,02,12,44,24.90
2021,06,02,12,45,24.90
2021,06,02,12,46,24.90
2021,06,02,12,47,24.80
2021,06,02,12,48,24.80
2021,06,02,12,49,24.70
2021,06,02,12,50,24.70
2021,06,02,12,51,24.60
2021,06,02,12,52,24.60
2021,06,02,12,53,24.50
2021,06,02,12,54,24.50
2021,06,02,12,55,24.50
2021,06,02,12,56,24.50
2021,06,02,12,57,24.60
2021,06,02,12,58,24.60
2021,06,02,12,59,24.60
2021,06,02,13,00,24.60
2021,06,02,13,01,24.70
2021,06,02,13,02,24.70
2021,06,02,13,03,24.60
2021,06,02,13,04,24.60
2021,06,02,13,05,24.60
2021,06,02,13,06,24.60
2021,06,02,13,07,24.70
2021,06,02,13,08,24.70
2021,06,02,13,09,24.70
2021,06,02,13,10,24.80
2021,06,02,13,11,24.90
2021,06,02,13,12,24.90
2021,06,02,13,13,25.00
2021,06,02,13,14,25.00
2021,06,02,13,15,25.10
2021,06,02,13,16,25.10
2021,06,02,13,17,25.20
2021,06,02,13,18,25.20
2021,06,02,13,19,25.30
2021,06,02,13,20,25.30
2021,06,02,13,21,25.30
2021,06,02,13,22,25.40
2021,06,02,13,23,25.40
2021,06,02,13,24,25.50
2021,06,02,13,25,25.40
2021,06,02,13,26,25.50
2021,06,02,13,27,25.40
2021,06,02,13,28,25.40
2021,06,02,13,29,25.40
2021,06,02,13,30,25.50
2021,06,02,13,31,25.50
2021,06,02,13,32,25.40
2021,06,02,13,33,25.40
2021,06,02,13,34,25.40
2021,06,02,13,35,25.30
2021,06,02,13,36,25.30
2021,06,02,13,37,25.30
2021,06,02,13,38,25.30
2021,06,02,13,39,25.30
2021,06,02,13,40,25.30
2021,06,02,13,41,25.30
2021,06,02,13,42,25.30
2021,06,02,13,43,25.30
2021,06,02,13,44,25.30
2021,06,02,13,45,25.30
2021,06,02,13,46,25.20
2021,06,02,13,47,25.20
2021,06,02,13,48,25.20
2021,06,02,13,49,25.20
2021,06,02,13,50,25.20
2021,06,02,13,51,25.20
2021,06,02,13,52,25.20
2021,06,02,13,53,25.20
2021,06,02,13,54,25.20
2021,06,02,13,55,25.30
2021,06,02,13,56,25.30
2021,06,02,13,57,25.30
2021,06,02,13,58,25.30
2021,06,02,13,59,25.30
2021,06,02,14,00,25.40
2021,06,02,14,01,25.40
2021,06,02,14,02,25.30
2021,06,02,14,03,25.30
2021,06,02,14,04,25.40
2021,06,02,14,05,25.40
2021,06,02,14,06,25.40
2021,06,02,14,07,25.40
2021,06,02,14,08,25.40
2021,06,02,14,09,25.40
2021,06,02,14,10,25.40
2021,06,02,14,11,25.40
2021,06,02,14,12,25.40
2021,06,02,14,13,25.40
2021,06,02,14,14,25.40
2021,06,02,14,15,25.40
2021,06,02,14,16,25.40
2021,06,02,14,17,25.40
2021,06,02,14,18,25.50
2021,06,02,14,19,25.50
2021,06,02,14,20,25.50
2021,06,02,14,21,25.50
2021,06,02,14,22,25.50
2021,06,02,14,23,25.60
2021,06,02,14,24,25.50
2021,06,02,14,25,25.50
2021,06,02,14,26,25.50
2021,06,02,14,27,25.50
2021,06,02,14,28,25.60
2021,06,02,14,29,25.60
2021,06,02,14,30,25.70
2021,06,02,14,31,25.80
2021,06,02,14,32,25.80
2021,06,02,14,33,25.90
2021,06,02,14,34,26.00
2021,06,02,14,35,26.10
2021,06,02,14,36,26.10
2021,06,02,14,37,26.20
2021,06,02,14,38,26.10
2021,06,02,14,39,26.10
2021,06,02,14,40,26.10
2021,06,02,14,41,26.20
2021,06,02,14,42,26.30
2021,06,02,14,43,26.30
2021,06,02,14,44,26.40
2021,06,02,14,45,26.40
2021,06,02,14,46,26.50
2021,06,02,14,47,26.50
2021,06,02,14,48,26.60
2021,06,02,14,49,26.70
2021,06,02,14,50,26.70
2021,06,02,14,51,26.70
2021,06,02,14,52,26.70
2021,06,02,14,53,26.70
2021,06,02,14,54,26.70
2021,06,02,14,55,26.70
2021,06,02,14,56,26.70
2021,06,02,14,57,26.70
2021,06,02,14,58,26.70
2021,06,02,14,59,26.70
2021,06,02,15,00,26.80
2021,06,02,15,01,26.80
2021,06,02,15,02,26.80
2021,06,02,15,03,26.80
2021,06,02,15,04,26.70
2021,06,02,15,05,26.70
2021,06,02,15,06,26.70
2021,06,02,15,07,26.70
2021,06,02,15,08,26.70
2021,06,02,15,09,26.70
2021,06,02,15,10,26.70
2021,06,02,15,11,26.70
2021,06,02,15,12,26.70
2021,06,02,15,13,26.70
2021,06,02,15,14,26.70
2021,06,02,15,15,26.70
2021,06,02,15,16,26.70
2021,06,02,15,17,26.70
2021,06,02,15,18,26.70
2021,06,02,15,19,26.60
2021,06,02,15,20,26.60
2021,06,02,15,21,26.50
2021,06,02,15,22,26.50
2021,06,02,15,23,26.50
2021,06,02,15,24,26.40
2021,06,02,15,25,26.40
2021,06,02,15,26,26.40
2021,06,02,15,27,26.40
2021,06,02,15,28,26.40
2021,06,02,15,29,26.30
2021,06,02,15,30,26.30
2021,06,02,15,31,26.40
2021,06,02,15,32,26.40
2021,06,02,15,33,26.40
2021,06,02,15,34,26.50
2021,06,02,15,35,26.60
2021,06,02,15,36,26.70
2021,06,02,15,37,26.80
2021,06,02,15,38,26.80
2021,06,02,15,39,26.80
2021,06,02,15,40,26.80
2021,06,02,15,41,26.80
2021,06,02,15,42,26.80
2021,06,02,15,43,26.70
2021,06,02,15,44,26.70
2021,06,02,15,45,26.70
2021,06,02,15,46,26.70
2021,06,02,15,47,26.70
2021,06,02,15,48,26.70
2021,06,02,15,49,26.70
2021,06,02,15,50,26.70
2021,06,02,15,51,26.70
2021,06,02,15,52,26.70
2021,06,02,15,53,26.70
2021,06,02,15,54,26.70
2021,06,02,15,55,26.70
2021,06,02,15,56,26.60
2021,06,02,15,57,26.60
2021,06,02,15,58,26.60
2021,06,02,15,59,26.60
2021,06,02,16,00,26.70
2021,06,02,16,01,26.70
2021,06,02,16,02,26.70
2021,06,02,16,03,26.80
2021,06,02,16,04,26.80
2021,06,02,16,05,26.80
2021,06,02,16,06,26.80
2021,06,02,16,07,26.80
2021,06,02,16,08,26.90
2021,06,02,16,09,26.90
2021,06,02,16,10,26.90
2021,06,02,16,11,26.90
2021,06,02,16,12,27.00
2021,06,02,16,13,27.00
2021,06,02,16,14,27.00
2021,06,02,16,15,27.10
2021,06,02,16,16,27.10
2021,06,02,16,17,27.10
2021,06,02,16,18,27.10
2021,06,02,16,19,27.10
2021,06,02,16,20,27.10
2021,06,02,16,21,27.10
2021,06,02,16,22,27.00
2021,06,02,16,23,27.00
2021,06,02,16,24,27.00
2021,06,02,16,25,27.00
2021,06,02,16,26,27.10
2021,06,02,16,27,27.10
2021,06,02,16,28,27.20
2021,06,02,16,29,27.20
2021,06,02,16,30,27.20
2021,06,02,16,31,27.20
2021,06,02,16,32,27.20
2021,06,02,16,33,27.20
2021,06,02,16,34,27.30
2021,06,02,16,35,27.30
2021,06,02,16,36,27.30
2021,06,02,16,37,27.30
2021,06,02,16,38,27.30
2021,06,02,16,39,27.30
2021,06,02,16,40,27.30
2021,06,02,16,41,27.40
2021,06,02,16,42,27.40
2021,06,02,16,43,27.30
2021,06,02,16,44,27.30
2021,06,02,16,45,27.10
2021,06,02,16,46,27.10
2021,06,02,16,47,27.00
2021,06,02,16,48,26.90
2021,06,02,16,49,26.90
2021,06,02,16,50,26.80
2021,06,02,16,51,26.80
2021,06,02,16,52,26.80
2021,06,02,16,53,26.80
2021,06,02,16,54,26.90
2021,06,02,16,55,26.90
2021,06,02,16,56,27.00
2021,06,02,16,57,27.00
2021,06,02,16,58,27.00
2021,06,02,16,59,27.00
2021,06,02,17,00,27.00
2021,06,02,17,01,26.90
2021,06,02,17,02,26.80
2021,06,02,17,03,26.80
2021,06,02,17,04,26.70
2021,06,02,17,05,26.60
2021,06,02,17,06,26.60
2021,06,02,17,07,26.50
2021,06,02,17,08,26.50
2021,06,02,17,09,26.50
2021,06,02,17,10,26.50
2021,06,02,17,11,26.50
2021,06,02,17,12,26.60
2021,06,02,17,13,26.60
2021,06,02,17,14,26.60
2021,06,02,17,15,26.60
2021,06,02,17,16,26.60
2021,06,02,17,17,26.60
2021,06,02,17,18,26.60
2021,06,02,17,19,26.60